Location: Casilda
(33.0440°S, 61.1680°W)
Time: 19:34:02
(UTC-03:00)

ISS - Pass Details

Date: 09 April 2026
Orbit: 416 x 425 km, 51.6° (Epoch: 18 April)

Event Time Altitude Azimuth Distance (km) Brightness Sun altitude
Rises 20:26:21 0° 312° (NW) 2,365 0.7 -21.1°
Reaches altitude 10° 20:28:27 10° 310° (NW) 1,506 -0.4 -21.5°
Enters shadow 20:31:21 61° 287° (WNW) 484 -3.3 -22.1°
